New Orleans, LA

6:53 AM CDT on May 29, 2017 (GMT -0500)
New Orleans International

Weather History for KMSY - April, 2013

Change the Weather History Date:

Friday, April 19, 2013

  Actual Average Record
Temperature  
Mean Temperature 55 °F -  
Max Temperature 75 °F 79 °F 90 °F (1987)
Min Temperature 50 °F 60 °F 45 °F (1983)
Degree Days  
Heating Degree Days 10    
Growing Degree Days 5 (Base 50)    
Moisture  
Dew Point 49 °F    
Average Humidity 75    
Maximum Humidity 94    
Minimum Humidity 51    
Precipitation  
Precipitation 0.98 in - - ()
Sea Level Pressure  
Sea Level Pressure 30.02 in    
Wind  
Wind Speed 15 mph (NNW)    
Max Wind Speed 23 mph    
Max Gust Speed 36 mph    
Visibility 8 miles    
Events Rain , Thunderstorm    
Averages and records for this station are not official NWS values.
T = Trace of Precipitation, MM = Missing Value Source: NWS Daily Summary

Daily Weather History Graph

Daily Weather History Graph

Search for Another Location

Airport or City:

Trip Planner

Search our weather history database for the weather conditions in past years. The results will help you decide how hot, cold, wet, or windy it might be!

Date:

Astronomy

Apr. 19, 2013 Rise Set
Actual Time 6:29 AM CDT 7:30 PM CDT
Civil Twilight 6:04 AM CDT 7:55 PM CDT
Nautical Twilight 5:35 AM CDT 8:25 PM CDT
Astronomical Twilight 5:05 AM CDT 8:55 PM CDT
Moon 1:41 PM CDT (4/19) 2:17 AM CDT (4/19)
Length of Visible Light 13h 50m
Length of Day
13h 01m
First Quarter, 62% of the Moon is Illuminated
Apr 19
First Quarter
Apr 25
Full
May 2
Last Quarter
May 9
New
May 17
First Quarter

Hourly Weather History & Observations

Time (CDT) Temp. Dew Point Humidity Pressure Visibility Wind Dir Wind Speed Gust Speed Precip Events Conditions
12:53 AM 75.9 °F 72.0 °F 87% 29.83 in 9.0 mi South 15.0 mph - 0.00 in   Overcast
1:26 AM 62.6 °F 60.8 °F 94% 29.85 in 2.5 mi NW 20.7 mph 27.6 mph 0.06 in Rain Rain
1:30 AM 62.6 °F 60.8 °F 94% 29.86 in 3.0 mi NW 21.9 mph 32.2 mph 0.12 in Rain , Thunderstorm Heavy Thunderstorms and Rain
1:36 AM 62.6 °F 60.8 °F 94% 29.86 in 2.0 mi NW 17.3 mph 32.2 mph 0.25 in Rain , Thunderstorm Heavy Thunderstorms and Rain
1:53 AM 61.0 °F 57.9 °F 90% 29.88 in 2.0 mi NW 18.4 mph 31.1 mph 0.50 in Rain , Thunderstorm Thunderstorms and Rain
2:10 AM 60.8 °F 57.2 °F 88% 29.87 in 3.0 mi NW 15.0 mph 34.5 mph 0.11 in Rain , Thunderstorm Thunderstorms and Rain
2:37 AM 60.8 °F 57.2 °F 88% 29.88 in 4.0 mi NW 13.8 mph - 0.28 in Rain Light Rain
2:53 AM 60.1 °F 57.9 °F 93% 29.90 in 5.0 mi NW 16.1 mph - 0.32 in Rain Light Rain
3:04 AM 57.2 °F 55.4 °F 94% 29.89 in 4.0 mi NW 18.4 mph 26.5 mph 0.03 in Rain , Thunderstorm Light Thunderstorms and Rain
3:53 AM 57.0 °F 53.1 °F 87% 29.91 in 7.0 mi NNW 15.0 mph 25.3 mph 0.11 in Rain , Thunderstorm Light Thunderstorms and Rain
4:53 AM 57.0 °F 53.1 °F 87% 29.93 in 10.0 mi NNW 17.3 mph 25.3 mph 0.00 in Rain Light Rain
5:30 AM 55.4 °F 50.0 °F 82% 29.93 in 10.0 mi North 21.9 mph 29.9 mph 0.01 in Rain , Thunderstorm Light Thunderstorms and Rain
5:53 AM 52.0 °F 45.0 °F 77% 29.96 in 8.0 mi North 23.0 mph 35.7 mph 0.05 in Rain , Thunderstorm Light Thunderstorms and Rain
6:25 AM 53.6 °F 46.4 °F 77% 30.03 in 10.0 mi NNW 20.7 mph 28.8 mph 0.01 in Thunderstorm Thunderstorm
6:53 AM 53.1 °F 46.9 °F 80% 30.07 in 10.0 mi North 13.8 mph 21.9 mph 0.01 in Thunderstorm Thunderstorm
7:22 AM 53.6 °F 46.4 °F 77% 30.04 in 10.0 mi North 20.7 mph 24.2 mph N/A   Overcast
7:53 AM 53.1 °F 46.0 °F 77% 30.09 in 10.0 mi NNW 11.5 mph 23.0 mph N/A   Overcast
8:20 AM 53.6 °F 44.6 °F 72% 30.13 in 10.0 mi NW 15.0 mph 23.0 mph N/A   Overcast
8:53 AM 52.0 °F 45.0 °F 77% 30.14 in 10.0 mi NNW 9.2 mph - N/A   Overcast
9:53 AM 52.0 °F 44.1 °F 74% 30.12 in 10.0 mi NNW 13.8 mph 21.9 mph 0.00 in   Overcast
10:53 AM 52.0 °F 43.0 °F 71% 30.10 in 10.0 mi NNW 19.6 mph 25.3 mph N/A   Overcast
11:53 AM 50.0 °F 42.1 °F 74% 30.13 in 10.0 mi NNW 15.0 mph - 0.00 in Rain Light Rain
12:53 PM 51.1 °F 43.0 °F 74% 30.11 in 10.0 mi NNW 11.5 mph 18.4 mph 0.01 in   Overcast
1:53 PM 54.0 °F 43.0 °F 66% 30.07 in 10.0 mi NNW 10.4 mph 18.4 mph N/A   Overcast
2:53 PM 54.0 °F 44.1 °F 69% 30.10 in 10.0 mi NNW 8.1 mph - 0.00 in   Overcast
3:53 PM 53.1 °F 41.0 °F 64% 30.06 in 10.0 mi NNW 10.4 mph - N/A   Overcast
4:53 PM 55.9 °F 44.1 °F 64% 30.06 in 10.0 mi NNW 6.9 mph - N/A   Mostly Cloudy
5:53 PM 59.0 °F 46.0 °F 62% 30.09 in 10.0 mi NW 6.9 mph - N/A   Mostly Cloudy
6:53 PM 57.0 °F 45.0 °F 64% 30.10 in 10.0 mi NW 3.5 mph - N/A   Scattered Clouds
7:53 PM 53.1 °F 45.0 °F 74% 30.12 in 10.0 mi WSW 4.6 mph - N/A   Partly Cloudy
8:53 PM 55.9 °F 39.0 °F 53% 30.14 in 10.0 mi North 10.4 mph - N/A   Partly Cloudy
9:53 PM 55.9 °F 39.0 °F 53% 30.16 in 10.0 mi North 13.8 mph - N/A   Partly Cloudy
10:53 PM 55.0 °F 37.9 °F 53% 30.17 in 10.0 mi North 13.8 mph 19.6 mph N/A   Clear
11:53 PM 55.0 °F 37.0 °F 51% 30.19 in 10.0 mi North 10.4 mph - N/A   Clear